^^

..:: Storico WU ::..




Lo storico viene creato da WUnderground con i dati che la stazione Meteomincio invia al loro server. L' aggiornamento viene fatto ogni 5 minuti circa, tuttavia possono esserci intervalli pi¨ ampi a causa di errori, interruzioni di servizio o problemi nell' invio tramite FTP.


Storico stazione MeteoMincio
Giorno Sommario per Marzo 20, 2022 Unità:  Inglese    Metrico   Entrambi
Giorno Settimana Mese Anno
  Max: Min: Media:
Temperatura: 58.6 °F 39.4 °F 48.9 °F
Dew Point: 31.6 °F 24.8 °F 28 °F
Umidità: 62% 29.2% 46%
Velocità vento: 15.8mph 2.4mph 7.5mph
Raffica: 26.5mph - -
Direzione- - East
Pressione: 30.6 in 30.5 in -
Precipitazioni: 0 in    
 
 
Tabulato Dati per Marzo 20, 2022
Ora Temperatura Dew Point Pressione Direzione Velocità vento Raffica Umidità Intensità pioggia (oraria) Info solare Situazione
00:04 42.1 °F 28.6 °F 30.6 in ENE 3.7 mph 6 mph 58.7% 0 in 0 W/m2
00:09 41.9 °F 28.6 °F 30.6 in ENE 3.2 mph 5 mph 58.9% 0 in 0 W/m2
00:14 41.7 °F 28 °F 30.6 in East 3.4 mph 7 mph 58.3% 0 in 0 W/m2
00:19 41.5 °F 28.2 °F 30.6 in East 3 mph 6 mph 59% 0 in 0 W/m2
00:24 41.2 °F 28 °F 30.6 in East 2.9 mph 6 mph 59% 0 in 0 W/m2
00:29 41 °F 28 °F 30.6 in East 3 mph 5 mph 59.6% 0 in 0 W/m2
00:34 40.6 °F 27.9 °F 30.6 in ENE 2.9 mph 4.6 mph 60.1% 0 in 0 W/m2
00:39 40.5 °F 28 °F 30.6 in ENE 2.6 mph 5 mph 60.8% 0 in 0 W/m2
00:44 40.5 °F 27.9 °F 30.6 in ENE 2.6 mph 5 mph 60.4% 0 in 0 W/m2
00:49 40.6 °F 27.9 °F 30.6 in ENE 3 mph 5 mph 60% 0 in 0 W/m2
00:54 40.6 °F 27.9 °F 30.6 in ENE 3.2 mph 5 mph 60% 0 in 0 W/m2
00:59 40.5 °F 27.7 °F 30.6 in ENE 2.5 mph 5 mph 60% 0 in 0 W/m2
01:04 40.5 °F 27.7 °F 30.6 in ENE 3.2 mph 5 mph 60% 0 in 0 W/m2
01:09 40.3 °F 27.5 °F 30.6 in ENE 3 mph 5 mph 60% 0 in 0 W/m2
01:14 40.1 °F 27.3 °F 30.6 in NE 2.9 mph 5 mph 60% 0 in 0 W/m2
01:19 39.9 °F 27.1 °F 30.6 in ENE 3.7 mph 9 mph 60% 0 in 0 W/m2
01:24 40.1 °F 27.1 °F 30.6 in ENE 5.1 mph 9.2 mph 60% 0 in 0 W/m2
01:29 40.1 °F 27.1 °F 30.6 in ENE 3.9 mph 9 mph 60% 0 in 0 W/m2
01:34 39.7 °F 27.1 °F 30.6 in ENE 3.6 mph 6 mph 60.1% 0 in 0 W/m2
01:39 39.7 °F 27 °F 30.6 in ENE 3.8 mph 6 mph 60% 0 in 0 W/m2
01:44 39.7 °F 27 °F 30.6 in ENE 3.8 mph 7 mph 60% 0 in 0 W/m2
01:49 39.9 °F 27.1 °F 30.6 in ENE 3.7 mph 7 mph 60% 0 in 0 W/m2
01:54 39.7 °F 27 °F 30.6 in ENE 3.5 mph 6 mph 60% 0 in 0 W/m2
01:59 39.7 °F 27 °F 30.6 in ENE 4.1 mph 7 mph 60% 0 in 0 W/m2
02:04 39.7 °F 27 °F 30.6 in ENE 4.5 mph 7 mph 60% 0 in 0 W/m2
02:09 39.9 °F 26.8 °F 30.6 in ENE 4.5 mph 7 mph 59.3% 0 in 0 W/m2
02:14 40.1 °F 27 °F 30.6 in ENE 4.6 mph 7 mph 59% 0 in 0 W/m2
02:19 40.3 °F 27 °F 30.6 in ENE 4.7 mph 7 mph 59% 0 in 0 W/m2
02:24 40.5 °F 27.1 °F 30.6 in East 4.2 mph 7 mph 59% 0 in 0 W/m2
02:29 40.5 °F 27.3 °F 30.6 in ENE 4.8 mph 9.2 mph 59% 0 in 0 W/m2
02:34 40.6 °F 27.5 °F 30.6 in ENE 5 mph 9 mph 59% 0 in 0 W/m2
02:39 41 °F 27.7 °F 30.6 in East 5.4 mph 9.2 mph 59% 0 in 0 W/m2
02:44 41 °F 27.7 °F 30.6 in ENE 4.9 mph 9 mph 58.8% 0 in 0 W/m2
02:49 41 °F 27.7 °F 30.6 in East 3.5 mph 8 mph 59% 0 in 0 W/m2
02:54 40.8 °F 27.5 °F 30.6 in ENE 4.2 mph 7 mph 59.1% 0 in 0 W/m2
02:59 40.6 °F 27.9 °F 30.6 in ENE 4.3 mph 8.1 mph 60% 0 in 0 W/m2
03:04 40.5 °F 27.7 °F 30.6 in ENE 4.5 mph 7 mph 60% 0 in 0 W/m2
03:09 40.5 °F 27.7 °F 30.6 in ENE 4.5 mph 7 mph 60% 0 in 0 W/m2
03:14 40.5 °F 27.7 °F 30.6 in ENE 4.9 mph 8.1 mph 60% 0 in 0 W/m2
03:19 40.5 °F 27.7 °F 30.6 in ENE 3.9 mph 8 mph 60% 0 in 0 W/m2
03:24 40.6 °F 27.7 °F 30.6 in East 3.2 mph 7 mph 60% 0 in 0 W/m2
03:29 40.5 °F 27.7 °F 30.6 in East 3.4 mph 7 mph 60% 0 in 0 W/m2
03:34 40.5 °F 27.7 °F 30.6 in East 3.9 mph 7 mph 60% 0 in 0 W/m2
03:39 40.5 °F 27.7 °F 30.6 in ENE 4.4 mph 7 mph 60% 0 in 0 W/m2
03:44 40.6 °F 27.9 °F 30.6 in ENE 4.3 mph 7 mph 60% 0 in 0 W/m2
03:49 40.5 °F 27.9 °F 30.6 in ENE 4.3 mph 7 mph 60.6% 0 in 0 W/m2
03:54 40.5 °F 28 °F 30.6 in ENE 4.5 mph 7 mph 61% 0 in 0 W/m2
03:59 40.1 °F 27.9 °F 30.6 in ENE 4.2 mph 7 mph 61% 0 in 0 W/m2
04:04 39.9 °F 27.7 °F 30.6 in ENE 4.1 mph 7 mph 61.3% 0 in 0 W/m2
04:09 39.7 °F 27.9 °F 30.6 in ENE 3.9 mph 7 mph 62% 0 in 0 W/m2
04:14 39.7 °F 27.7 °F 30.6 in ENE 3.5 mph 7 mph 62% 0 in 0 W/m2
04:19 39.6 °F 27.5 °F 30.6 in ENE 3.2 mph 5 mph 62% 0 in 0 W/m2
04:24 39.4 °F 27.5 °F 30.6 in ENE 4.1 mph 7 mph 62% 0 in 0 W/m2
04:29 39.6 °F 27.5 °F 30.6 in ENE 4.5 mph 7 mph 62% 0 in 0 W/m2
04:34 39.7 °F 27.7 °F 30.6 in ENE 4.7 mph 9.2 mph 62% 0 in 0 W/m2
04:39 39.7 °F 27.7 °F 30.6 in ENE 5.2 mph 9 mph 61.7% 0 in 0 W/m2
04:44 39.9 °F 27.5 °F 30.6 in ENE 5.2 mph 8.1 mph 61% 0 in 0 W/m2
04:49 40.1 °F 27.7 °F 30.6 in ENE 5.3 mph 8.1 mph 61% 0 in 0 W/m2
04:54 40.3 °F 27.9 °F 30.6 in ENE 6.3 mph 11 mph 61% 0 in 0 W/m2
04:59 40.6 °F 28.2 °F 30.6 in ENE 6.7 mph 11.5 mph 61% 0 in 0 W/m2
05:04 40.8 °F 28.2 °F 30.6 in ENE 6.8 mph 12 mph 60.2% 0 in 0 W/m2
05:09 41.2 °F 28.4 °F 30.6 in ENE 7.2 mph 10.4 mph 60% 0 in 0 W/m2
05:14 41.4 °F 28.4 °F 30.6 in ENE 7.6 mph 13 mph 60% 0 in 0 W/m2
05:19 41.4 °F 28.4 °F 30.6 in ENE 7.6 mph 13 mph 60% 0 in 0 W/m2
05:24 41.5 °F 28.6 °F 30.6 in ENE 6.9 mph 13 mph 60% 0 in 0 W/m2
05:29 41.5 °F 28.6 °F 30.6 in ENE 7.2 mph 12 mph 60% 0 in 0 W/m2
05:34 41.5 °F 28.6 °F 30.6 in ENE 7.5 mph 12 mph 60% 0 in 0 W/m2
05:39 41.5 °F 28.6 °F 30.6 in ENE 7.1 mph 13 mph 60% 0 in 0 W/m2
05:44 41.5 °F 28.6 °F 30.6 in ENE 8.2 mph 13 mph 60% 0 in 0 W/m2
05:49 41.7 °F 28.8 °F 30.6 in ENE 8.8 mph 14 mph 60% 0 in 0 W/m2
05:54 41.9 °F 28.9 °F 30.6 in ENE 7.5 mph 14 mph 60% 0 in 0 W/m2
05:59 42.1 °F 28.9 °F 30.6 in ENE 8.5 mph 14 mph 59.4% 0 in 0 W/m2
06:04 42.1 °F 28.8 °F 30.6 in ENE 7.7 mph 14 mph 59% 0 in 0 W/m2
06:09 42.3 °F 28.9 °F 30.6 in ENE 8 mph 13 mph 59% 0 in 0 W/m2
06:14 42.3 °F 28.9 °F 30.6 in ENE 8.3 mph 13 mph 59% 0 in 0 W/m2
06:19 42.3 °F 28.9 °F 30.6 in ENE 7.6 mph 12 mph 59% 0 in 0 W/m2
06:24 42.3 °F 28.9 °F 30.6 in ENE 8.6 mph 12 mph 59% 0 in 0 W/m2
06:29 42.1 °F 28.8 °F 30.6 in ENE 7.5 mph 12 mph 58.8% 0 in 7 W/m2
06:34 42.1 °F 28.8 °F 30.6 in ENE 8 mph 12 mph 59% 0 in 11 W/m2
06:39 41.9 °F 28.6 °F 30.6 in ENE 7.6 mph 13 mph 59% 0 in 14 W/m2
06:44 41.9 °F 28.6 °F 30.6 in ENE 7.2 mph 13 mph 59% 0 in 19 W/m2
06:49 41.9 °F 28.6 °F 30.6 in ENE 7.5 mph 12 mph 59% 0 in 23 W/m2
06:54 42.1 °F 28.8 °F 30.6 in ENE 7.1 mph 12 mph 58.9% 0 in 28 W/m2
06:59 42.3 °F 28.6 °F 30.6 in ENE 8 mph 13 mph 58% 0 in 35 W/m2
07:04 42.6 °F 28.9 °F 30.6 in ENE 8.6 mph 13 mph 58% 0 in 44 W/m2
07:09 43.2 °F 28.9 °F 30.6 in ENE 7.6 mph 14 mph 56.7% 0 in 53 W/m2
07:14 43.9 °F 28.9 °F 30.6 in East 8.6 mph 14 mph 55.5% 0 in 63 W/m2
07:19 44.4 °F 28.9 °F 30.6 in ENE 8.8 mph 13 mph 54.3% 0 in 74 W/m2
07:24 44.8 °F 29.1 °F 30.6 in ENE 7.7 mph 13 mph 54% 0 in 84 W/m2
07:29 45 °F 29.3 °F 30.6 in East 7.9 mph 13 mph 54% 0 in 95 W/m2
07:34 45.5 °F 29.7 °F 30.6 in East 7.8 mph 12 mph 53.8% 0 in 109 W/m2
07:39 45.9 °F 29.7 °F 30.6 in East 8.4 mph 13 mph 53.2% 0 in 120 W/m2
07:44 46.2 °F 29.7 °F 30.6 in East 8.9 mph 14 mph 52.3% 0 in 120 W/m2
07:49 46.4 °F 29.8 °F 30.6 in East 6.7 mph 14 mph 52% 0 in 151 W/m2
07:54 46.6 °F 30 °F 30.6 in East 7.3 mph 11 mph 52% 0 in 169 W/m2
07:59 46.9 °F 30.2 °F 30.6 in ENE 7.2 mph 11.5 mph 52% 0 in 181 W/m2
08:04 46.9 °F 30.2 °F 30.6 in East 6.3 mph 12 mph 51.8% 0 in 193 W/m2
08:09 47.1 °F 30.2 °F 30.6 in East 7.4 mph 12 mph 51.7% 0 in 211 W/m2
08:14 47.3 °F 30.4 °F 30.6 in East 7.2 mph 12 mph 51.6% 0 in 221 W/m2
08:19 47.7 °F 30.7 °F 30.6 in East 8 mph 15 mph 51.7% 0 in 236 W/m2
08:24 47.8 °F 30.7 °F 30.6 in East 8.4 mph 15 mph 51.2% 0 in 246 W/m2
08:29 48 °F 30.7 °F 30.6 in East 8 mph 15 mph 51% 0 in 262 W/m2
08:34 48.4 °F 31.1 °F 30.6 in East 6.5 mph 10.4 mph 51% 0 in 276 W/m2
08:39 48.9 °F 31.5 °F 30.6 in ENE 6.8 mph 10.4 mph 50.8% 0 in 287 W/m2
08:44 49.3 °F 31.6 °F 30.6 in ENE 9 mph 18 mph 50.2% 0 in 301 W/m2
08:49 49.8 °F 31.3 °F 30.6 in ENE 10.4 mph 18 mph 48.7% 0 in 313 W/m2
08:54 50.2 °F 31.1 °F 30.6 in ENE 11.5 mph 17 mph 47.9% 0 in 322 W/m2
08:59 50.5 °F 30.9 °F 30.6 in ENE 12.6 mph 19.6 mph 46.6% 0 in 341 W/m2
09:04 50.9 °F 30.4 °F 30.6 in ENE 14.1 mph 20 mph 45.2% 0 in 353 W/m2
09:09 51.1 °F 30.7 °F 30.6 in ENE 13.2 mph 21 mph 45.4% 0 in 367 W/m2
09:14 51.6 °F 30.9 °F 30.6 in ENE 13.5 mph 21 mph 45.1% 0 in 376 W/m2
09:19 52 °F 30.2 °F 30.6 in ENE 12.2 mph 21 mph 43.3% 0 in 390 W/m2
09:24 52 °F 30 °F 30.6 in ENE 15.3 mph 22 mph 42.7% 0 in 403 W/m2
09:29 52 °F 29.5 °F 30.6 in ENE 15.4 mph 26.5 mph 42% 0 in 415 W/m2
09:34 52.2 °F 29.5 °F 30.6 in ENE 14.4 mph 26 mph 41.6% 0 in 427 W/m2
09:39 52.3 °F 29.3 °F 30.6 in ENE 15.8 mph 24.2 mph 40.9% 0 in 441 W/m2
09:44 52.7 °F 29.7 °F 30.6 in East 13.2 mph 24 mph 41% 0 in 450 W/m2
09:49 52.9 °F 29.7 °F 30.6 in East 12.6 mph 22 mph 40.5% 0 in 461 W/m2
09:54 52.9 °F 29.3 °F 30.6 in East 13.8 mph 22 mph 40.1% 0 in 475 W/m2
09:59 53.1 °F 29.8 °F 30.6 in ENE 13.4 mph 22 mph 40.8% 0 in 485 W/m2
10:04 53.4 °F 30.4 °F 30.6 in East 12 mph 20 mph 41% 0 in 496 W/m2
10:09 54 °F 30 °F 30.6 in East 12.1 mph 22 mph 39.7% 0 in 503 W/m2
10:14 53.8 °F 29.3 °F 30.6 in East 14.6 mph 22 mph 39% 0 in 515 W/m2
10:19 53.8 °F 29.8 °F 30.6 in East 13.8 mph 23 mph 39.6% 0 in 527 W/m2
10:24 54 °F 29.7 °F 30.6 in East 14 mph 22 mph 39.2% 0 in 534 W/m2
10:29 54.3 °F 30.2 °F 30.6 in East 12.7 mph 22 mph 39.6% 0 in 545 W/m2
10:34 54.7 °F 30.2 °F 30.6 in East 11 mph 20 mph 39.2% 0 in 554 W/m2
10:39 54.9 °F 30.4 °F 30.6 in East 12.1 mph 22 mph 38.9% 0 in 564 W/m2
10:44 55 °F 30.6 °F 30.6 in East 11.4 mph 22 mph 38.9% 0 in 568 W/m2
10:49 55.2 °F 30.6 °F 30.6 in East 11.8 mph 20 mph 38.8% 0 in 580 W/m2
10:54 55.6 °F 30.7 °F 30.6 in ENE 11.1 mph 20 mph 38.5% 0 in 589 W/m2
10:59 55.6 °F 30.2 °F 30.6 in East 13 mph 18.4 mph 37.7% 0 in 594 W/m2
11:04 55.6 °F 30.2 °F 30.6 in ENE 12.5 mph 18.4 mph 37.8% 0 in 601 W/m2
11:09 55.9 °F 29.7 °F 30.6 in East 11.7 mph 19.6 mph 36.6% 0 in 606 W/m2
11:14 55.9 °F 29.3 °F 30.6 in East 12.2 mph 21 mph 36% 0 in 615 W/m2
11:19 55.9 °F 29.3 °F 30.6 in East 12.7 mph 21 mph 36% 0 in 619 W/m2
11:24 56.3 °F 29.7 °F 30.6 in ENE 11.6 mph 21 mph 36% 0 in 624 W/m2
11:29 56.5 °F 29.7 °F 30.6 in ENE 11.1 mph 20 mph 35.8% 0 in 628 W/m2
11:34 56.7 °F 29.8 °F 30.6 in ENE 11.1 mph 17.3 mph 35.9% 0 in 633 W/m2
11:39 56.5 °F 29.1 °F 30.6 in East 12.7 mph 21 mph 35% 0 in 640 W/m2
11:44 56.5 °F 28.2 °F 30.6 in ENE 13.5 mph 21 mph 33.8% 0 in 643 W/m2
11:49 56.5 °F 28.6 °F 30.6 in ENE 13.4 mph 22 mph 34.3% 0 in 649 W/m2
11:54 56.5 °F 28.2 °F 30.6 in ENE 12.6 mph 23 mph 33.8% 0 in 650 W/m2
11:59 56.5 °F 28.6 °F 30.6 in ENE 12.4 mph 23 mph 34.2% 0 in 652 W/m2
12:04 56.7 °F 29.1 °F 30.6 in ENE 12.4 mph 22 mph 34.8% 0 in 654 W/m2
12:09 56.8 °F 29.5 °F 30.6 in East 11.7 mph 19 mph 35.2% 0 in 657 W/m2
12:14 56.8 °F 29.1 °F 30.6 in ENE 13.5 mph 23 mph 34.6% 0 in 661 W/m2
12:19 56.8 °F 29.3 °F 30.6 in East 13.4 mph 23 mph 34.8% 0 in 663 W/m2
12:24 56.7 °F 29.1 °F 30.6 in East 12.6 mph 20 mph 34.8% 0 in 666 W/m2
12:29 56.8 °F 29.1 °F 30.6 in ESE 12.4 mph 18.4 mph 34.7% 0 in 666 W/m2
12:34 57.2 °F 29.7 °F 30.6 in East 12.1 mph 19.6 mph 35% 0 in 666 W/m2
12:39 57.2 °F 29.8 °F 30.6 in ENE 11.1 mph 20 mph 35% 0 in 663 W/m2
12:44 57.2 °F 29.1 °F 30.6 in East 12.6 mph 20 mph 34.1% 0 in 666 W/m2
12:49 56.8 °F 29.1 °F 30.6 in ESE 13 mph 19 mph 34.6% 0 in 664 W/m2
12:54 57 °F 29.3 °F 30.6 in ENE 12.4 mph 20 mph 34.5% 0 in 664 W/m2
12:59 57.2 °F 29.3 °F 30.6 in ENE 12.4 mph 20 mph 34.4% 0 in 661 W/m2
13:04 57.2 °F 29.5 °F 30.6 in ENE 10.3 mph 20 mph 34.4% 0 in 656 W/m2
13:09 57.2 °F 28.8 °F 30.6 in ESE 11.1 mph 17 mph 33.7% 0 in 657 W/m2
13:14 57 °F 28.8 °F 30.6 in ESE 11.2 mph 18.4 mph 34% 0 in 661 W/m2
13:19 57.2 °F 28.8 °F 30.6 in East 9.9 mph 18 mph 33.4% 0 in 654 W/m2
13:24 57.4 °F 28.9 °F 30.6 in East 10.2 mph 17.3 mph 33.5% 0 in 652 W/m2
13:29 57.6 °F 29.1 °F 30.6 in ESE 11 mph 19.6 mph 33.9% 0 in 650 W/m2
13:34 57.4 °F 28.4 °F 30.6 in ESE 11.7 mph 20 mph 32.8% 0 in 643 W/m2
13:39 57.4 °F 27.7 °F 30.6 in ESE 11.6 mph 18 mph 32.1% 0 in 642 W/m2
13:44 57 °F 27.9 °F 30.6 in East 10.9 mph 17.3 mph 32.5% 0 in 635 W/m2
13:49 57.4 °F 28.2 °F 30.6 in East 8.4 mph 17 mph 32.7% 0 in 628 W/m2
13:54 57.6 °F 28.4 °F 30.6 in ENE 8.9 mph 16.1 mph 32.8% 0 in 622 W/m2
13:59 57.9 °F 28.6 °F 30.6 in East 8.6 mph 16 mph 32.3% 0 in 619 W/m2
14:04 57.9 °F 28.4 °F 30.6 in ESE 8.9 mph 16.1 mph 32.2% 0 in 617 W/m2
14:09 57.7 °F 28.2 °F 30.6 in East 8.1 mph 13 mph 32.4% 0 in 601 W/m2
14:14 57.7 °F 28.6 °F 30.6 in East 10.1 mph 17.3 mph 32.5% 0 in 599 W/m2
14:19 58.1 °F 29.1 °F 30.6 in East 11.6 mph 26.5 mph 33.1% 0 in 587 W/m2
14:24 58.3 °F 28.6 °F 30.6 in ENE 10.7 mph 26 mph 32.2% 0 in 575 W/m2
14:29 58.1 °F 28.4 °F 30.6 in ENE 9.7 mph 18 mph 32.2% 0 in 566 W/m2
14:34 57.9 °F 28.2 °F 30.6 in ENE 9.8 mph 17 mph 32% 0 in 563 W/m2
14:39 58.1 °F 28.8 °F 30.6 in ENE 8.1 mph 17 mph 32.6% 0 in 557 W/m2
14:44 58.3 °F 29.1 °F 30.6 in East 7.6 mph 12 mph 32.6% 0 in 543 W/m2
14:49 58.3 °F 28.8 °F 30.6 in East 7.2 mph 14 mph 32.3% 0 in 531 W/m2
14:54 58.6 °F 28.9 °F 30.6 in ENE 10.9 mph 18.4 mph 32.2% 0 in 522 W/m2
14:59 58.5 °F 28.2 °F 30.6 in ENE 10.4 mph 18 mph 31.5% 0 in 515 W/m2
15:04 58.3 °F 28.6 °F 30.6 in ENE 9.9 mph 17 mph 32.1% 0 in 497 W/m2
15:09 58.1 °F 28.4 °F 30.6 in East 9.6 mph 16.1 mph 32.1% 0 in 483 W/m2
15:14 57.7 °F 27.7 °F 30.6 in East 9.3 mph 16.1 mph 31.6% 0 in 483 W/m2
15:19 57.9 °F 27.7 °F 30.6 in East 8 mph 16 mph 31.4% 0 in 475 W/m2
15:24 58.3 °F 28.2 °F 30.6 in East 8.6 mph 15 mph 31.5% 0 in 461 W/m2
15:29 58.1 °F 27.3 °F 30.6 in East 7 mph 15 mph 30.8% 0 in 450 W/m2
15:34 58.1 °F 27.7 °F 30.6 in ENE 8.7 mph 15 mph 31.2% 0 in 438 W/m2
15:39 58.1 °F 28.2 °F 30.6 in ENE 8.6 mph 17.3 mph 31.6% 0 in 432 W/m2
15:44 58.1 °F 27.9 °F 30.6 in East 8.5 mph 17 mph 31.5% 0 in 410 W/m2
15:49 57.6 °F 27.3 °F 30.6 in East 10 mph 16.1 mph 31.2% 0 in 401 W/m2
15:54 57.6 °F 27.5 °F 30.5 in East 9.9 mph 16.1 mph 31.5% 0 in 385 W/m2
15:59 57.7 °F 27.1 °F 30.5 in East 10 mph 16.1 mph 31% 0 in 369 W/m2
16:04 57.7 °F 27.7 °F 30.5 in ENE 10.1 mph 18 mph 31.7% 0 in 357 W/m2
16:09 57.7 °F 27.7 °F 30.5 in ENE 11.3 mph 18.4 mph 31.5% 0 in 345 W/m2
16:14 57.6 °F 27.5 °F 30.5 in East 9.5 mph 18 mph 31.5% 0 in 329 W/m2
16:19 57.4 °F 27 °F 30.5 in East 8.8 mph 17 mph 31% 0 in 320 W/m2
16:24 57.6 °F 27.5 °F 30.5 in ENE 9.1 mph 16.1 mph 31.4% 0 in 306 W/m2
16:29 57.4 °F 27.1 °F 30.5 in East 8.9 mph 16 mph 31.1% 0 in 290 W/m2
16:34 57.4 °F 27.1 °F 30.5 in ENE 9.3 mph 15 mph 31.2% 0 in 272 W/m2
16:39 57.4 °F 27 °F 30.5 in East 9.8 mph 17.3 mph 31% 0 in 255 W/m2
16:44 57.2 °F 26.6 °F 30.5 in East 10.3 mph 17.3 mph 30.8% 0 in 248 W/m2
16:49 57 °F 26.1 °F 30.5 in East 8.3 mph 17 mph 30.2% 0 in 236 W/m2
16:54 56.8 °F 25.7 °F 30.5 in East 8.6 mph 13 mph 30% 0 in 218 W/m2
16:59 56.8 °F 26.1 °F 30.5 in East 8.8 mph 14 mph 30.3% 0 in 204 W/m2
17:04 56.7 °F 25.2 °F 30.5 in ESE 10.9 mph 17.3 mph 29.5% 0 in 185 W/m2
17:09 56.5 °F 24.8 °F 30.5 in East 9.2 mph 17 mph 29.2% 0 in 169 W/m2
17:14 56.5 °F 25 °F 30.5 in East 8.6 mph 15 mph 29.6% 0 in 155 W/m2
17:19 56.3 °F 25.9 °F 30.5 in East 6.3 mph 15 mph 30.8% 0 in 144 W/m2
17:24 56.1 °F 25.2 °F 30.5 in East 7.3 mph 15 mph 30% 0 in 128 W/m2
17:29 55.9 °F 25.3 °F 30.5 in ESE 5.7 mph 15 mph 30.3% 0 in 113 W/m2
17:34 55.8 °F 26.6 °F 30.5 in ESE 8.2 mph 15 mph 32.5% 0 in 97 W/m2
17:39 55.2 °F 27 °F 30.5 in ESE 9.1 mph 15 mph 33.3% 0 in 83 W/m2
17:44 55 °F 27 °F 30.5 in ESE 8.8 mph 15 mph 33.8% 0 in 44 W/m2
17:49 54.5 °F 26.8 °F 30.5 in ESE 7.7 mph 15 mph 34.1% 0 in 40 W/m2
17:54 54.3 °F 27 °F 30.5 in ESE 7.2 mph 12 mph 34.8% 0 in 46 W/m2
17:59 54 °F 27 °F 30.6 in East 7 mph 12.7 mph 35% 0 in 40 W/m2
18:04 53.8 °F 27.1 °F 30.6 in East 6.5 mph 13 mph 35.7% 0 in 33 W/m2
18:09 53.4 °F 27.5 °F 30.6 in East 6.6 mph 10.4 mph 36.6% 0 in 26 W/m2
18:14 53.1 °F 27.1 °F 30.6 in East 7.1 mph 11.5 mph 36.5% 0 in 21 W/m2
18:19 52.9 °F 26.6 °F 30.6 in East 6.6 mph 12 mph 36% 0 in 16 W/m2
18:24 52.7 °F 26.4 °F 30.6 in East 6.6 mph 12 mph 36% 0 in 12 W/m2
18:29 52.3 °F 26.2 °F 30.6 in East 6.5 mph 12 mph 36.2% 0 in 7 W/m2
18:34 52 °F 26.6 °F 30.6 in East 7 mph 12 mph 37% 0 in 0 W/m2
18:39 51.8 °F 26.2 °F 30.6 in East 7.2 mph 9.2 mph 37% 0 in 0 W/m2
18:44 51.4 °F 26.1 °F 30.6 in East 6.5 mph 10.4 mph 37% 0 in 0 W/m2
18:49 51.1 °F 25.7 °F 30.6 in ENE 6.2 mph 10.4 mph 37% 0 in 0 W/m2
18:54 50.9 °F 25.5 °F 30.6 in ENE 5.3 mph 9.2 mph 37% 0 in 0 W/m2
18:59 50.5 °F 25.3 °F 30.6 in ENE 5 mph 9 mph 37.3% 0 in 0 W/m2
19:04 50.4 °F 25.5 °F 30.6 in East 5 mph 8.1 mph 37.9% 0 in 0 W/m2
19:09 50.2 °F 25.5 °F 30.6 in East 4.8 mph 8 mph 38% 0 in 0 W/m2
19:14 50 °F 25.5 °F 30.6 in ENE 3.8 mph 7 mph 38% 0 in 0 W/m2
19:19 50 °F 25.3 °F 30.6 in ENE 3.5 mph 7 mph 38% 0 in 0 W/m2
19:24 50 °F 25.3 °F 30.6 in East 3.7 mph 8.1 mph 38% 0 in 0 W/m2
19:29 49.8 °F 25.7 °F 30.6 in East 4.5 mph 8.1 mph 38.8% 0 in 0 W/m2
19:34 49.6 °F 25.9 °F 30.6 in East 5.7 mph 9.2 mph 39.3% 0 in 0 W/m2
19:39 49.8 °F 26.4 °F 30.6 in East 5 mph 9 mph 40% 0 in 0 W/m2
19:44 49.8 °F 26.4 °F 30.6 in East 5.8 mph 10 mph 40% 0 in 0 W/m2
19:49 49.8 °F 26.8 °F 30.6 in East 8.6 mph 14 mph 40.6% 0 in 0 W/m2
19:54 49.8 °F 27.1 °F 30.6 in East 8.6 mph 16 mph 41% 0 in 0 W/m2
19:59 50 °F 27.7 °F 30.6 in East 9.7 mph 16.1 mph 41.9% 0 in 0 W/m2
20:04 50 °F 27.9 °F 30.6 in East 8.7 mph 16 mph 42% 0 in 0 W/m2
20:09 50 °F 27.9 °F 30.6 in East 8.8 mph 14 mph 42% 0 in 0 W/m2
20:14 50 °F 28.2 °F 30.6 in East 8.6 mph 14 mph 42.9% 0 in 0 W/m2
20:19 49.8 °F 28.6 °F 30.6 in East 6.9 mph 14 mph 43.7% 0 in 0 W/m2
20:24 49.6 °F 28.6 °F 30.6 in East 6.5 mph 10 mph 44% 0 in 0 W/m2
20:29 49.5 °F 28.8 °F 30.6 in East 6.8 mph 10.4 mph 44.6% 0 in 0 W/m2
20:34 49.1 °F 28.8 °F 30.6 in East 6.3 mph 10.4 mph 45% 0 in 0 W/m2
20:39 48.9 °F 28.4 °F 30.6 in East 7 mph 11.5 mph 45% 0 in 0 W/m2
20:44 48.6 °F 28.4 °F 30.6 in East 6.2 mph 12 mph 45.2% 0 in 0 W/m2
20:49 48.4 °F 28.6 °F 30.6 in East 5.7 mph 9.2 mph 46% 0 in 0 W/m2
20:54 48.2 °F 28.8 °F 30.6 in ESE 5.2 mph 9 mph 46.8% 0 in 0 W/m2
20:59 48 °F 28.6 °F 30.6 in ESE 4.1 mph 8 mph 46.5% 0 in 0 W/m2
21:04 48 °F 27.7 °F 30.6 in ESE 5.1 mph 8.1 mph 45% 0 in 0 W/m2
21:09 48.2 °F 27.3 °F 30.6 in ESE 6.2 mph 10.4 mph 44.4% 0 in 0 W/m2
21:14 48.2 °F 27.3 °F 30.6 in ESE 4.7 mph 10 mph 44.2% 0 in 0 W/m2
21:19 48 °F 27.7 °F 30.6 in ESE 4.2 mph 7 mph 45% 0 in 0 W/m2
21:24 47.8 °F 27.7 °F 30.6 in ESE 4.8 mph 7 mph 45% 0 in 0 W/m2
21:29 47.8 °F 27.7 °F 30.6 in ESE 4.7 mph 7 mph 45.4% 0 in 0 W/m2
21:34 47.7 °F 27.7 °F 30.6 in ESE 4.2 mph 7 mph 45.8% 0 in 0 W/m2
21:39 47.5 °F 27.7 °F 30.6 in ESE 3.5 mph 7 mph 46% 0 in 0 W/m2
21:44 47.5 °F 28.4 °F 30.6 in ESE 3.9 mph 7 mph 47.3% 0 in 0 W/m2
21:49 47.3 °F 28 °F 30.6 in ESE 3.5 mph 6 mph 47% 0 in 0 W/m2
21:54 47.3 °F 28.6 °F 30.6 in ESE 3.4 mph 6 mph 48% 0 in 0 W/m2
21:59 47.1 °F 28.4 °F 30.6 in East 3 mph 6 mph 47.7% 0 in 0 W/m2
22:04 47.3 °F 28.2 °F 30.6 in ENE 2.5 mph 5 mph 47.2% 0 in 0 W/m2
22:09 47.1 °F 28.4 °F 30.6 in ENE 3.4 mph 5 mph 48% 0 in 0 W/m2
22:14 46.9 °F 28.4 °F 30.6 in ENE 4.5 mph 8.1 mph 48% 0 in 0 W/m2
22:19 46.8 °F 28 °F 30.6 in ENE 6 mph 9.2 mph 48% 0 in 0 W/m2
22:24 46.2 °F 27.7 °F 30.6 in ENE 5 mph 9.2 mph 48% 0 in 0 W/m2
22:29 45.9 °F 27.3 °F 30.6 in ENE 4 mph 9 mph 48.3% 0 in 0 W/m2
22:34 45.5 °F 27.3 °F 30.6 in ENE 3.8 mph 7 mph 48.8% 0 in 0 W/m2
22:39 45.1 °F 27.1 °F 30.6 in ENE 4 mph 7 mph 49% 0 in 0 W/m2
22:44 45 °F 27 °F 30.6 in ENE 3.4 mph 7 mph 49% 0 in 0 W/m2
22:49 45 °F 27 °F 30.6 in ENE 3 mph 5 mph 49% 0 in 0 W/m2
22:54 45 °F 27 °F 30.6 in NE 2.8 mph 4 mph 49% 0 in 0 W/m2
22:59 45 °F 27 °F 30.6 in ENE 2.6 mph 4 mph 49% 0 in 0 W/m2
23:04 45 °F 27 °F 30.6 in ENE 2.8 mph 5 mph 49% 0 in 0 W/m2
23:09 45 °F 27.1 °F 30.6 in ENE 2.9 mph 5 mph 49.5% 0 in 0 W/m2
23:14 45 °F 27.1 °F 30.6 in ENE 3.1 mph 5 mph 49.3% 0 in 0 W/m2
23:19 45 °F 27 °F 30.6 in ENE 3.8 mph 5 mph 49% 0 in 0 W/m2
23:24 45 °F 27 °F 30.6 in ENE 3 mph 5 mph 49% 0 in 0 W/m2
23:29 44.8 °F 26.8 °F 30.6 in ENE 3.5 mph 5 mph 49% 0 in 0 W/m2
23:34 44.6 °F 26.6 °F 30.6 in ENE 3.2 mph 5 mph 48.7% 0 in 0 W/m2
23:39 44.6 °F 26.4 °F 30.6 in ENE 2.7 mph 5 mph 48.5% 0 in 0 W/m2
23:44 44.4 °F 26.1 °F 30.6 in ENE 2.4 mph 5 mph 48.2% 0 in 0 W/m2
23:49 44.4 °F 25.9 °F 30.6 in ENE 2.7 mph 4 mph 48% 0 in 0 W/m2
23:54 44.2 °F 25.7 °F 30.6 in ENE 2.9 mph 4 mph 48% 0 in 0 W/m2
23:59 44.1 °F 25.5 °F 30.6 in ENE 3 mph 5 mph 47.8% 0 in 0 W/m2
Stazione Meteorologica MeteoMincio Rivalta s/M (MN)
Con i complimenti di Weather Underground - 4 mb


GLOSSARIO METEOROLOGICO
Umidità Assoluta
Quantità di vapore acqueo contenuta in 1 metro cubo di aria. Viene espressa in grammi per m³.

Do NOT follow this link or you will be banned from the site!